Hopkinsville, KY

5:38 PM CDT on August 30, 2014 (GMT -0500)
Calvin Drive | Change Station
CLOSE
Current Station
Personal Weather Station
Location: Hopkinsville, KY
Elevation: 541 ft
Nearby Weather Stations

Elev 541 ft 36.84 °N, 87.47 °W | Updated 3 seconds ago

Rain
Rain
74.5 °F
Feels Like 73 °F
N
1.6
Wind Variable Wind from NE
Gusts 4.5 mph

Today
High -- | Low -- °F
--% Chance of Precip.
Yesterday
High -- | Low -- °F
Precip. -- in
6:19 AM 7:21 PM
Waxing Crescent, 25% visible
Pressure 30.02 in
Visibility 10.0 miles
Clouds Clear
Heat Index 73 °F
Dew Point 72 °F
Humidity 93%
Rainfall 0.04 in
Snow Depth Not available.
UV 3 out of 12
Pollen 6.00 out of 12
PM2.5 Good
Flu Activity Not available.
METAR KHOP 302158Z AUTO 17001KT 10SM CLR 25/24 A3003 RMK AO2 DZB2117 SLP166 P0000 T02490243

More Conditions Fewer Conditions

Pressure 30.02 in
Visibility 10.0 miles
Clouds Clear
Heat Index 73 °F
Dew Point 72 °F
Humidity 93%
Rainfall 0.04 in
Snow Depth Not available.
UV 3 out of 12
Pollen 6.00 out of 12
PM2.5 Good
Flu Activity Not available.
METAR KHOP 302158Z AUTO 17001KT 10SM CLR 25/24 A3003 RMK AO2 DZB2117 SLP166 P0000 T02490243

More Conditions Fewer Conditions

10-Day Weather Forecast

Almanac

Astronomy

Aug. 30, 2014 Rise Set
Actual Time 6:19 AM CDT 7:21 PM CDT
Civil Twilight 5:52 AM CDT 7:47 PM CDT
Nautical Twilight 5:20 AM CDT 8:19 PM CDT
Astronomical Twilight 4:48 AM CDT 8:51 PM CDT
Moon 10:58 AM CDT 10:03 PM CDT
Length of Visible Light 13h 55m
Length of Day
13h 01m
Tomorrow will be 2m 15s shorter.
Waxing Crescent, 25% of the Moon is Illuminated
Today
Waxing Crescent
Sep 2
First Quarter
Sep 8
Full
Sep 15
Last Quarter
Sep 24
New

Today's Extremes

State Highs State Lows

Community

WunderPhotos

Upload Photos

1,748,657 photos uploaded!

WunderBlogs® & News

Nearby

Air Quality

  Air Quality AQ Index Pollutant
Yesterday Moderate
OZONE
Yesterday Moderate
PM2.5
Current Good
PM2.5
Saturday Moderate
PM2.5
Saturday Good
OZONE
Sunday Moderate
PM2.5
Sunday Good
OZONE
Monday Good
OZONE
Monday Good
PM2.5

Snow Depth

Station Depth Elevation
No new snow has been reported.

Earthquake Activity

City Distance Mag. Time & Date
No recent earthquake activity has been reported nearby.
Minimum magnitude displayed is 2.5.

Coastal Water Temperatures

Place Temperature
No Stations Reporting

Nearby Weather Stations